Time,TemperatureF,DewpointF,PressureIn,WindDirection,WindDirectionDegrees,WindSpeedMPH,WindSpeedGustMPH,Humidity,HourlyPrecipIn,Conditions,Clouds,dailyrainin,SoftwareType,DateUTC
2013-06-27 00:00:00,72.9,65.3,30.07,SSW,203,0.0,0.0,77,0.00,,,0.00,WUHU216HW,2013-06-27 05:00:00,
2013-06-27 00:05:00,72.9,65.3,30.07,SSW,203,0.0,0.0,77,0.00,,,0.00,WUHU216HW,2013-06-27 05:05:00,
2013-06-27 00:30:00,72.4,65.5,30.08,SSW,203,0.4,0.4,79,0.00,,,0.00,WUHU216HW,2013-06-27 05:30:00,
2013-06-27 00:35:00,72.4,65.5,30.08,SSW,203,0.4,0.4,79,0.00,,,0.00,WUHU216HW,2013-06-27 05:35:00,
2013-06-27 01:00:00,72.2,65.7,30.07,SW,225,1.1,1.1,80,0.00,,,0.00,WUHU216HW,2013-06-27 06:00:00,
2013-06-27 01:05:00,72.2,65.7,30.07,SW,225,1.1,1.1,80,0.00,,,0.00,WUHU216HW,2013-06-27 06:05:00,
2013-06-27 01:30:00,71.8,65.7,30.07,SW,225,1.6,1.6,81,0.00,,,0.00,WUHU216HW,2013-06-27 06:30:00,
2013-06-27 01:35:00,71.8,65.7,30.07,SW,225,1.6,1.6,81,0.00,,,0.00,WUHU216HW,2013-06-27 06:35:00,
2013-06-27 02:00:00,71.5,65.7,30.06,SSW,203,0.0,0.0,82,0.00,,,0.00,WUHU216HW,2013-06-27 07:00:00,
2013-06-27 02:05:00,71.5,65.7,30.06,SSW,203,0.0,0.0,82,0.00,,,0.00,WUHU216HW,2013-06-27 07:05:00,
2013-06-27 02:30:00,71.1,65.6,30.06,SW,225,0.0,0.0,83,0.00,,,0.00,WUHU216HW,2013-06-27 07:30:00,
2013-06-27 02:35:00,71.1,65.6,30.06,SW,225,0.0,0.0,83,0.00,,,0.00,WUHU216HW,2013-06-27 07:35:00,
2013-06-27 03:00:00,70.9,65.8,30.06,SW,225,1.8,1.8,84,0.00,,,0.00,WUHU216HW,2013-06-27 08:00:00,
2013-06-27 03:05:00,70.9,65.8,30.06,SW,225,1.8,1.8,84,0.00,,,0.00,WUHU216HW,2013-06-27 08:05:00,
2013-06-27 03:30:00,70.4,65.6,30.06,SW,225,1.3,1.3,85,0.00,,,0.00,WUHU216HW,2013-06-27 08:30:00,
2013-06-27 03:35:00,70.4,65.6,30.06,SW,225,1.3,1.3,85,0.00,,,0.00,WUHU216HW,2013-06-27 08:35:00,
2013-06-27 04:00:00,70.2,65.8,30.06,SW,225,0.0,0.0,86,0.00,,,0.00,WUHU216HW,2013-06-27 09:00:00,
2013-06-27 04:05:00,70.2,65.8,30.06,SW,225,0.0,0.0,86,0.00,,,0.00,WUHU216HW,2013-06-27 09:05:00,
2013-06-27 04:30:00,70.0,65.6,30.07,SW,225,1.1,1.1,86,0.00,,,0.00,WUHU216HW,2013-06-27 09:30:00,
2013-06-27 04:35:00,70.0,65.6,30.07,SW,225,1.1,1.1,86,0.00,,,0.00,WUHU216HW,2013-06-27 09:35:00,
2013-06-27 05:00:00,69.8,65.8,30.07,SW,225,1.6,1.6,87,0.00,,,0.00,WUHU216HW,2013-06-27 10:00:00,
2013-06-27 05:05:00,69.8,65.8,30.07,SW,225,1.6,1.6,87,0.00,,,0.00,WUHU216HW,2013-06-27 10:05:00,
2013-06-27 05:30:00,69.7,65.6,30.08,West,270,1.1,1.1,87,0.00,,,0.00,WUHU216HW,2013-06-27 10:30:00,
2013-06-27 05:35:00,69.7,65.6,30.08,West,270,1.1,1.1,87,0.00,,,0.00,WUHU216HW,2013-06-27 10:35:00,
2013-06-27 06:00:00,69.8,66.1,30.08,ENE,68,0.0,0.0,88,0.00,,,0.00,WUHU216HW,2013-06-27 11:00:00,
2013-06-27 06:05:00,69.8,66.1,30.08,ENE,68,0.0,0.0,88,0.00,,,0.00,WUHU216HW,2013-06-27 11:05:00,
2013-06-27 06:30:00,70.2,66.2,30.07,SSW,203,0.2,0.2,87,0.00,,,0.00,WUHU216HW,2013-06-27 11:30:00,
2013-06-27 06:35:00,70.2,66.2,30.07,SSW,203,0.2,0.2,87,0.00,,,0.00,WUHU216HW,2013-06-27 11:35:00,
2013-06-27 07:00:00,70.6,66.5,30.08,SW,225,1.6,1.6,87,0.00,,,0.00,WUHU216HW,2013-06-27 12:00:00,
2013-06-27 07:05:00,70.6,66.5,30.08,SW,225,1.6,1.6,87,0.00,,,0.00,WUHU216HW,2013-06-27 12:05:00,
2013-06-27 07:30:00,72.4,67.6,30.08,West,270,1.6,1.6,85,0.00,,,0.00,WUHU216HW,2013-06-27 12:30:00,
2013-06-27 07:35:00,72.4,67.6,30.08,West,270,1.6,1.6,85,0.00,,,0.00,WUHU216HW,2013-06-27 12:35:00,
2013-06-27 08:00:00,74.5,69.0,30.09,WSW,248,2.2,2.2,83,0.00,,,0.00,WUHU216HW,2013-06-27 13:00:00,
2013-06-27 08:05:00,74.5,69.0,30.09,WSW,248,2.2,2.2,83,0.00,,,0.00,WUHU216HW,2013-06-27 13:05:00,
2013-06-27 08:30:00,75.1,67.8,30.09,NW,315,2.2,2.2,78,0.00,,,0.00,WUHU216HW,2013-06-27 13:30:00,
2013-06-27 08:35:00,75.1,67.8,30.09,NW,315,2.2,2.2,78,0.00,,,0.00,WUHU216HW,2013-06-27 13:35:00,
2013-06-27 09:00:00,76.3,68.6,30.08,West,270,3.6,3.6,77,0.00,,,0.00,WUHU216HW,2013-06-27 14:00:00,
2013-06-27 09:05:00,76.3,68.6,30.08,West,270,3.6,3.6,77,0.00,,,0.00,WUHU216HW,2013-06-27 14:05:00,
2013-06-27 09:30:00,77.4,68.0,30.09,West,270,7.8,7.8,73,0.00,,,0.00,WUHU216HW,2013-06-27 14:30:00,
2013-06-27 09:35:00,77.4,68.0,30.09,West,270,7.8,7.8,73,0.00,,,0.00,WUHU216HW,2013-06-27 14:35:00,
2013-06-27 10:00:00,78.3,66.9,30.07,North,0,1.8,1.8,68,0.00,,,0.00,WUHU216HW,2013-06-27 15:00:00,
2013-06-27 10:05:00,78.3,66.9,30.07,North,0,1.8,1.8,68,0.00,,,0.00,WUHU216HW,2013-06-27 15:05:00,
2013-06-27 10:30:00,79.0,66.3,30.08,North,0,4.7,4.7,65,0.00,,,0.00,WUHU216HW,2013-06-27 15:30:00,
2013-06-27 10:35:00,79.0,66.3,30.08,North,0,4.7,4.7,65,0.00,,,0.00,WUHU216HW,2013-06-27 15:35:00,
2013-06-27 11:00:00,79.9,65.8,30.08,North,0,5.4,5.4,62,0.00,,,0.00,WUHU216HW,2013-06-27 16:00:00,
2013-06-27 11:05:00,79.9,65.8,30.08,North,0,5.4,5.4,62,0.00,,,0.00,WUHU216HW,2013-06-27 16:05:00,
2013-06-27 11:30:00,80.8,64.6,30.09,WNW,293,2.5,2.5,58,0.00,,,0.00,WUHU216HW,2013-06-27 16:30:00,
2013-06-27 11:35:00,80.8,64.6,30.09,WNW,293,2.5,2.5,58,0.00,,,0.00,WUHU216HW,2013-06-27 16:35:00,
2013-06-27 12:00:00,81.7,63.4,30.09,WSW,248,6.0,6.0,54,0.00,,,0.00,WUHU216HW,2013-06-27 17:00:00,
2013-06-27 12:05:00,81.7,63.4,30.09,WSW,248,6.0,6.0,54,0.00,,,0.00,WUHU216HW,2013-06-27 17:05:00,
2013-06-27 12:30:00,82.1,62.1,30.09,West,270,15.7,15.7,51,0.00,,,0.00,WUHU216HW,2013-06-27 17:30:00,
2013-06-27 12:35:00,82.1,62.1,30.09,West,270,15.7,15.7,51,0.00,,,0.00,WUHU216HW,2013-06-27 17:35:00,
2013-06-27 13:00:00,82.8,61.7,30.10,WSW,248,6.9,6.9,49,0.00,,,0.00,WUHU216HW,2013-06-27 18:00:00,
2013-06-27 13:05:00,82.8,61.7,30.10,WSW,248,6.9,6.9,49,0.00,,,0.00,WUHU216HW,2013-06-27 18:05:00,
2013-06-27 13:30:00,83.2,60.1,30.10,NNW,338,5.6,5.6,46,0.00,,,0.00,WUHU216HW,2013-06-27 18:30:00,
2013-06-27 13:35:00,83.2,60.1,30.10,NNW,338,5.6,5.6,46,0.00,,,0.00,WUHU216HW,2013-06-27 18:35:00,
2013-06-27 14:00:00,83.5,59.2,30.10,WNW,293,9.8,9.8,44,0.00,,,0.00,WUHU216HW,2013-06-27 19:00:00,
2013-06-27 14:05:00,83.5,59.2,30.10,WNW,293,9.8,9.8,44,0.00,,,0.00,WUHU216HW,2013-06-27 19:05:00,
2013-06-27 14:30:00,83.9,59.0,30.09,NNW,338,7.6,7.6,43,0.00,,,0.00,WUHU216HW,2013-06-27 19:30:00,
2013-06-27 14:35:00,83.9,59.0,30.09,NNW,338,7.6,7.6,43,0.00,,,0.00,WUHU216HW,2013-06-27 19:35:00,
2013-06-27 15:00:00,84.6,59.7,30.09,WNW,293,8.5,8.5,43,0.00,,,0.00,WUHU216HW,2013-06-27 20:00:00,
2013-06-27 15:05:00,84.6,59.7,30.09,WNW,293,8.5,8.5,43,0.00,,,0.00,WUHU216HW,2013-06-27 20:05:00,
2013-06-27 15:30:00,84.6,59.1,30.08,WNW,293,9.2,9.2,42,0.00,,,0.00,WUHU216HW,2013-06-27 20:30:00,
2013-06-27 15:35:00,84.6,59.1,30.08,WNW,293,9.2,9.2,42,0.00,,,0.00,WUHU216HW,2013-06-27 20:35:00,
2013-06-27 16:00:00,85.0,58.1,30.08,NW,315,6.3,6.3,40,0.00,,,0.00,WUHU216HW,2013-06-27 21:00:00,
2013-06-27 16:05:00,85.0,58.1,30.08,NW,315,6.3,6.3,40,0.00,,,0.00,WUHU216HW,2013-06-27 21:05:00,
2013-06-27 16:30:00,85.1,58.2,30.08,WNW,293,6.9,6.9,40,0.00,,,0.00,WUHU216HW,2013-06-27 21:30:00,
2013-06-27 16:35:00,85.1,58.2,30.08,WNW,293,6.9,6.9,40,0.00,,,0.00,WUHU216HW,2013-06-27 21:35:00,
2013-06-27 17:00:00,85.1,57.4,30.08,West,270,9.8,9.8,39,0.00,,,0.00,WUHU216HW,2013-06-27 22:00:00,
2013-06-27 17:05:00,85.1,57.4,30.08,West,270,9.8,9.8,39,0.00,,,0.00,WUHU216HW,2013-06-27 22:05:00,
2013-06-27 17:30:00,85.0,57.2,30.08,WNW,293,5.4,5.4,39,0.00,,,0.00,WUHU216HW,2013-06-27 22:30:00,
2013-06-27 17:35:00,85.0,57.2,30.08,WNW,293,5.4,5.4,39,0.00,,,0.00,WUHU216HW,2013-06-27 22:35:00,
2013-06-27 18:00:00,85.1,58.2,30.07,ENE,68,6.3,6.3,40,0.00,,,0.00,WUHU216HW,2013-06-27 23:00:00,
2013-06-27 18:05:00,85.1,58.2,30.07,ENE,68,6.3,6.3,40,0.00,,,0.00,WUHU216HW,2013-06-27 23:05:00,
2013-06-27 18:30:00,85.3,58.4,30.07,West,270,7.8,7.8,40,0.00,,,0.00,WUHU216HW,2013-06-27 23:30:00,
2013-06-27 18:35:00,85.3,58.4,30.07,West,270,7.8,7.8,40,0.00,,,0.00,WUHU216HW,2013-06-27 23:35:00,
2013-06-27 19:00:00,85.5,58.6,30.07,NW,315,4.5,4.5,40,0.00,,,0.00,WUHU216HW,2013-06-28 00:00:00,
2013-06-27 19:05:00,85.5,58.6,30.07,NW,315,4.5,4.5,40,0.00,,,0.00,WUHU216HW,2013-06-28 00:05:00,
2013-06-27 19:30:00,88.9,62.8,30.07,WNW,293,1.8,1.8,42,0.00,,,0.00,WUHU216HW,2013-06-28 00:30:00,
2013-06-27 19:35:00,88.9,62.8,30.07,WNW,293,1.8,1.8,42,0.00,,,0.00,WUHU216HW,2013-06-28 00:35:00,
2013-06-27 20:00:00,91.8,63.3,30.07,West,270,2.7,2.7,39,0.00,,,0.00,WUHU216HW,2013-06-28 01:00:00,
2013-06-27 20:05:00,91.8,63.3,30.07,West,270,2.7,2.7,39,0.00,,,0.00,WUHU216HW,2013-06-28 01:05:00,
2013-06-27 20:30:00,86.0,60.9,30.06,NW,315,0.9,0.9,43,0.00,,,0.00,WUHU216HW,2013-06-28 01:30:00,
2013-06-27 20:35:00,86.0,60.9,30.06,NW,315,0.9,0.9,43,0.00,,,0.00,WUHU216HW,2013-06-28 01:35:00,
2013-06-27 21:00:00,83.5,60.5,30.05,WNW,293,0.9,0.9,46,0.00,,,0.00,WUHU216HW,2013-06-28 02:00:00,
2013-06-27 21:05:00,83.5,60.5,30.05,WNW,293,0.9,0.9,46,0.00,,,0.00,WUHU216HW,2013-06-28 02:05:00,
2013-06-27 21:30:00,81.0,60.0,30.05,WSW,248,1.3,1.3,49,0.00,,,0.00,WUHU216HW,2013-06-28 02:30:00,
2013-06-27 21:35:00,81.0,60.0,30.05,WSW,248,1.3,1.3,49,0.00,,,0.00,WUHU216HW,2013-06-28 02:35:00,
2013-06-27 22:00:00,78.3,59.8,30.06,SW,225,0.0,0.0,53,0.00,,,0.00,WUHU216HW,2013-06-28 03:00:00,
2013-06-27 22:05:00,78.3,59.8,30.06,SW,225,0.0,0.0,53,0.00,,,0.00,WUHU216HW,2013-06-28 03:05:00,
2013-06-27 22:30:00,76.7,59.8,30.06,WSW,248,1.6,1.6,56,0.00,,,0.00,WUHU216HW,2013-06-28 03:30:00,
2013-06-27 22:35:00,76.7,59.8,30.06,WSW,248,1.6,1.6,56,0.00,,,0.00,WUHU216HW,2013-06-28 03:35:00,
2013-06-27 23:00:00,75.4,60.7,30.06,SW,225,1.3,1.3,60,0.00,,,0.00,WUHU216HW,2013-06-28 04:00:00,
2013-06-27 23:01:00,75.4,60.7,30.06,SW,225,1.3,1.3,60,0.00,,,0.00,WUHU216HW,2013-06-28 04:01:00,
2013-06-27 23:06:00,75.4,60.7,30.06,SW,225,1.3,1.3,60,0.00,,,0.00,WUHU216HW,2013-06-28 04:06:00,
2013-06-27 23:30:00,74.0,60.6,30.06,WSW,248,2.0,2.0,63,0.00,,,0.00,WUHU216HW,2013-06-28 04:30:00,
2013-06-27 23:35:00,74.0,60.6,30.06,WSW,248,2.0,2.0,63,0.00,,,0.00,WUHU216HW,2013-06-28 04:35:00,